Location: Street
(51.1247°N, 2.7429°W)
Time: 23:48:10
(UTC+00:00)

Transit 4A - All Passes

Search period start: 05 December 2020 00:00
Search period end: 15 December 2020 00:00
Orbit: 862 x 982 km, 66.8° (Epoch: 05 December)

Date Brightness Start Highest point End Pass type
(mag) Time Alt. Az. Time Alt. Az. Time Alt. Az.
05 Dec - 05:18:38 10° SE 05:22:37 17° ESE 05:26:36 10° ENE visible
05 Dec - 07:01:39 10° SSW 07:08:00 77° ESE 07:14:27 10° NE visible
05 Dec - 08:49:09 10° W 08:54:59 35° NNW 09:00:52 10° NNE daylight
05 Dec - 10:38:42 10° NW 10:43:19 20° N 10:47:56 10° NE daylight
05 Dec - 12:26:55 10° NNW 12:32:02 24° NNE 12:37:03 10° ENE daylight
05 Dec - 14:13:31 10° NW 14:19:49 56° NE 14:25:57 10° ESE daylight
05 Dec - 16:00:14 10° NW 16:06:04 39° WSW 16:11:43 10° S daylight
06 Dec - 05:26:37 10° SSE 05:31:35 25° ESE 05:36:37 10° NE visible
06 Dec - 07:10:57 10° SW 07:17:20 82° NW 07:23:49 10° NE visible
06 Dec - 08:59:06 10° W 09:04:40 30° NNW 09:10:14 10° NNE daylight
06 Dec - 10:48:38 10° NW 10:53:11 20° N 10:57:42 10° NE daylight
06 Dec - 12:36:23 10° NNW 12:41:46 27° NNE 12:47:04 10° E daylight
06 Dec - 14:22:51 10° NW 14:29:15 72° NE 14:35:29 10° SE daylight
06 Dec - 16:09:52 10° NW 16:15:09 28° WSW 16:20:18 10° SSW daylight
07 Dec - 05:35:02 10° S 05:40:39 34° ESE 05:46:20 10° NE visible
07 Dec - 07:20:24 10° SW 07:26:45 64° NW 07:33:10 10° NE visible
07 Dec - 09:09:07 10° WNW 09:14:22 26° NNW 09:19:38 10° NNE daylight
07 Dec - 10:58:28 10° NW 11:03:02 20° N 11:07:34 10° NE daylight
07 Dec - 12:45:47 10° NNW 12:51:28 32° NNE 12:57:02 10° E daylight
07 Dec - 14:32:12 10° NW 14:38:38 87° SW 14:44:51 10° SE daylight
07 Dec - 16:19:45 10° WNW 16:24:09 20° WSW 16:28:30 10° SSW daylight
08 Dec - 05:43:46 10° S 05:49:48 47° ESE 05:55:54 10° NE visible
08 Dec - 07:30:01 10° WSW 07:36:14 50° NW 07:42:29 10° NNE daylight
08 Dec - 09:19:11 10° WNW 09:24:09 23° NNW 09:29:07 10° NE daylight
08 Dec - 11:08:10 10° NW 11:12:53 21° N 11:17:31 10° ENE daylight
08 Dec - 12:55:09 10° NNW 13:01:06 38° NE 13:06:55 10° ESE daylight
08 Dec - 14:41:37 10° NW 14:47:55 66° WSW 14:54:02 10° SSE daylight
08 Dec - 16:30:05 10° WNW 16:33:06 14° W 16:36:04 10° SW daylight
09 Dec - 04:10:52 10° SE 04:13:50 14° E 04:16:48 10° ENE visible
09 Dec - 05:52:43 10° SSW 05:59:00 64° ESE 06:05:22 10° NE visible
09 Dec - 07:39:47 10° WSW 07:45:47 40° NW 07:51:50 10° NNE daylight
09 Dec - 09:29:13 10° WNW 09:33:58 21° NNW 09:38:41 10° NE daylight
09 Dec - 11:17:47 10° NW 11:22:42 22° NNE 11:27:32 10° ENE daylight
09 Dec - 13:04:29 10° NNW 13:10:40 48° NE 13:16:41 10° ESE daylight
09 Dec - 14:51:04 10° NW 14:57:08 48° WSW 15:03:00 10° S daylight
10 Dec - 04:18:23 10° SSE 04:22:46 20° ESE 04:27:12 10° ENE visible
10 Dec - 06:01:54 10° SSW 06:08:18 84° ESE 06:14:46 10° NE visible
10 Dec - 07:49:40 10° W 07:55:24 33° NNW 08:01:10 10° NNE daylight
10 Dec - 09:39:13 10° NW 09:43:48 20° N 09:48:22 10° NE daylight
10 Dec - 11:27:17 10° NNW 11:32:29 25° NNE 11:37:35 10° ENE daylight
10 Dec - 13:13:49 10° NW 13:20:10 61° NE 13:26:19 10° SE daylight
10 Dec - 15:00:38 10° NW 15:06:16 35° WSW 15:11:46 10° S daylight
11 Dec - 04:26:33 10° SSE 04:31:48 28° ESE 04:37:05 10° NE visible
11 Dec - 06:11:16 10° SW 06:17:40 75° NW 06:24:07 10° NE visible
11 Dec - 07:59:38 10° W 08:05:05 28° NNW 08:10:32 10° NNE daylight
11 Dec - 09:49:08 10° NW 09:53:40 19° N 09:58:10 10° NE daylight
11 Dec - 11:36:43 10° NNW 11:42:12 29° NNE 11:47:35 10° E daylight
11 Dec - 13:23:10 10° NW 13:29:35 79° NE 13:35:47 10° SE daylight
11 Dec - 15:10:20 10° NW 15:15:20 25° WSW 15:20:13 10° SSW daylight
12 Dec - 04:35:05 10° S 04:40:53 38° ESE 04:46:44 10° NE visible
12 Dec - 06:20:47 10° SW 06:27:06 58° NW 06:33:27 10° NE visible
12 Dec - 08:09:40 10° WNW 08:14:50 24° NNW 08:19:59 10° NNE daylight
12 Dec - 09:58:55 10° NW 10:03:31 20° N 10:08:04 10° NE daylight
12 Dec - 11:46:06 10° NNW 11:51:53 34° NNE 11:57:31 10° E daylight
12 Dec - 13:32:32 10° NW 13:38:55 79° SW 13:45:05 10° SSE daylight
12 Dec - 15:20:20 10° WNW 15:24:19 18° WSW 15:28:14 10° SW daylight
13 Dec - 03:04:13 10° ESE 03:05:05 10° E 03:05:58 10° E visible
13 Dec - 04:43:54 10° SSW 04:50:03 52° ESE 04:56:16 10° NE visible
13 Dec - 06:30:27 10° WSW 06:36:36 46° NW 06:42:47 10° NNE visible
13 Dec - 08:19:44 10° WNW 08:24:37 22° NNW 08:29:29 10° NE daylight
13 Dec - 10:08:36 10° NW 10:13:21 21° NNE 10:18:03 10° ENE daylight
13 Dec - 11:55:27 10° NNW 12:01:29 41° NE 12:07:22 10° ESE daylight
13 Dec - 13:41:57 10° NW 13:48:10 59° WSW 13:54:12 10° SSE daylight
13 Dec - 15:31:05 10° WNW 15:33:13 12° W 15:35:21 10° WSW daylight
14 Dec - 03:10:23 10° SE 03:13:59 16° ESE 03:17:35 10° ENE visible
14 Dec - 04:52:57 10° SSW 04:59:17 71° ESE 05:05:42 10° NE visible
14 Dec - 06:40:16 10° WSW 06:46:11 37° NW 06:52:07 10° NNE visible
14 Dec - 08:29:47 10° NW 08:34:26 20° N 08:39:05 10° NE daylight
14 Dec - 10:18:10 10° NNW 10:23:09 23° NNE 10:28:04 10° ENE daylight
14 Dec - 12:04:47 10° NNW 12:11:02 52° NE 12:17:05 10° ESE daylight
14 Dec - 13:51:27 10° NW 13:57:22 43° WSW 14:03:06 10° S daylight
